Location: Clason Point
(40.8136°N, 73.8618°W)
Time: 08:26:30
(UTC+00:00)

YAOGAN 6 - Pass Details

Date: 16 September 2019
Orbit: 466 x 505 km, 97.0° (Epoch: 14 October)

Event Time Altitude Azimuth Distance (km) Brightness Sun altitude
Rises 23:39:32 0° 180° (S) 2,551 6.1 -7.7°
Reaches altitude 10° 23:41:39 10° 187° (S) 1,681 5.3 -8.1°
Maximum altitude 23:45:08 46° 261° (W) 680 3.9 -8.7°
Drops below altitude 10° 23:48:42 10° 336° (NNW) 1,713 5.9 -9.4°
Sets 23:50:52 0° 343° (NNW) 2,607 6.7 -9.8°
